• en France
  • Liste des pays
  • À 7 jours
  • Température de l'eau
  • Carte satellitaire
  • Carte météo
  • Widgets météo
  • user-avatar
    Se connecter

    Météo par heure à Nikoia

    Ce jour, 19 Août, Dimanche

    Heure Température Précipitation Vent Pression Humidité
    00:00 +26°C° 0 mm 1 m/s 746 mmHg 89%
    01:00 +25°C° 0 mm 1 m/s 746 mmHg 90%
    02:00 +25°C° 0 mm 1 m/s 746 mmHg 91%
    03:00 +25°C° 0 mm 1 m/s 745 mmHg 91%
    04:00 +25°C° 0 mm 1 m/s 745 mmHg 91%
    05:00 +25°C° 0 mm 2 m/s 746 mmHg 91%
    06:00 +25°C° 0 mm 2 m/s 746 mmHg 91%
    07:00 +27°C° 0 mm 2 m/s 746 mmHg 82%
    08:00 +29°C° 0 mm 2 m/s 747 mmHg 73%
    09:00 +31°C° 0 mm 2 m/s 747 mmHg 64%
    10:00 +32°C° 0 mm 2 m/s 747 mmHg 60%
    11:00 +35°C° 0 mm 2 m/s 746 mmHg 56%
    12:00 +36°C° 0 mm 2 m/s 746 mmHg 52%
    13:00 +35°C° 1,5 mm 2 m/s 746 mmHg 56%
    14:00 +34°C° 1,5 mm 3 m/s 745 mmHg 61%
    15:00 +33°C° 1,5 mm 3 m/s 745 mmHg 66%
    16:00 +31°C° 2 mm 2 m/s 745 mmHg 71%
    17:00 +30°C° 2 mm 2 m/s 745 mmHg 77%
    18:00 +28°C° 2 mm 2 m/s 745 mmHg 82%
    19:00 +28°C° 0,9 mm 2 m/s 745 mmHg 83%
    20:00 +27°C° 0,9 mm 1 m/s 746 mmHg 84%
    21:00 +27°C° 0,9 mm 1 m/s 746 mmHg 85%
    22:00 +27°C° 0 mm 1 m/s 746 mmHg 85%
    23:00 +26°C° 0 mm 1 m/s 746 mmHg 85%

    Demain, 20 Août, Lundi

    Heure Température Précipitation Vent Pression Humidité
    00:00 +26°C° 0 mm 1 m/s 746 mmHg 85%
    01:00 +26°C° 0 mm 1 m/s 746 mmHg 86%
    02:00 +25°C° 0 mm 1 m/s 746 mmHg 86%
    03:00 +25°C° 0 mm 1 m/s 745 mmHg 87%
    04:00 +25°C° 0 mm 1 m/s 745 mmHg 87%
    05:00 +25°C° 0 mm 1 m/s 745 mmHg 87%
    06:00 +25°C° 0 mm 2 m/s 746 mmHg 88%
    07:00 +27°C° 0 mm 2 m/s 746 mmHg 80%
    08:00 +29°C° 0 mm 2 m/s 746 mmHg 72%
    09:00 +31°C° 0 mm 2 m/s 747 mmHg 64%
    10:00 +33°C° 0 mm 3 m/s 747 mmHg 61%
    11:00 +34°C° 0 mm 3 m/s 746 mmHg 57%
    12:00 +35°C° 0 mm 3 m/s 746 mmHg 54%
    13:00 +35°C° 1,4 mm 3 m/s 746 mmHg 58%
    14:00 +34°C° 1,4 mm 3 m/s 745 mmHg 62%
    15:00 +33°C° 1,4 mm 4 m/s 745 mmHg 66%
    16:00 +31°C° 1,5 mm 3 m/s 745 mmHg 71%
    17:00 +30°C° 1,5 mm 3 m/s 745 mmHg 76%
    18:00 +28°C° 1,5 mm 2 m/s 745 mmHg 82%
    19:00 +28°C° 0,4 mm 2 m/s 746 mmHg 83%
    20:00 +27°C° 0,4 mm 1 m/s 746 mmHg 84%
    21:00 +27°C° 0,4 mm 1 m/s 747 mmHg 86%
    22:00 +27°C° 0 mm 1 m/s 747 mmHg 86%
    23:00 +26°C° 0 mm 1 m/s 747 mmHg 87%

    Après-demain, 21 Août, Mardi

    Heure Température Précipitation Vent Pression Humidité
    00:00 +26°C° 0 mm 1 m/s 747 mmHg 87%
    01:00 +26°C° 0 mm 1 m/s 746 mmHg 88%
    02:00 +26°C° 0 mm 1 m/s 746 mmHg 89%
    03:00 +26°C° 0 mm 1 m/s 745 mmHg 90%
    04:00 +26°C° 0 mm 1 m/s 745 mmHg 89%
    05:00 +26°C° 0 mm 1 m/s 746 mmHg 89%
    06:00 +26°C° 0 mm 1 m/s 746 mmHg 89%
    07:00 +27°C° 0 mm 2 m/s 746 mmHg 81%
    08:00 +29°C° 0 mm 2 m/s 747 mmHg 73%
    09:00 +31°C° 0 mm 2 m/s 747 mmHg 66%
    10:00 +34°C° 0,1 mm 2 m/s 747 mmHg 62%
    11:00 +35°C° 0,1 mm 3 m/s 747 mmHg 57%
    12:00 +36°C° 0,1 mm 3 m/s 747 mmHg 53%
    13:00 +35°C° 1,8 mm 3 m/s 746 mmHg 58%
    14:00 +34°C° 1,8 mm 3 m/s 745 mmHg 63%
    15:00 +33°C° 1,8 mm 3 m/s 745 mmHg 67%
    16:00 +31°C° 0,9 mm 3 m/s 745 mmHg 72%
    17:00 +30°C° 0,9 mm 2 m/s 745 mmHg 77%
    18:00 +28°C° 0,9 mm 2 m/s 745 mmHg 82%
    19:00 +28°C° 0,1 mm 1 m/s 746 mmHg 83%
    20:00 +28°C° 0,1 mm 1 m/s 746 mmHg 84%
    21:00 +27°C° 0,1 mm 1 m/s 747 mmHg 85%
    22:00 +27°C° 0 mm 1 m/s 747 mmHg 85%
    23:00 +27°C° 0 mm 1 m/s 747 mmHg 86%

    22 Août, Mercredi

    Heure Température Précipitation Vent Pression Humidité
    00:00 +26°C° 0 mm 1 m/s 747 mmHg 86%
    01:00 +26°C° 0 mm 1 m/s 746 mmHg 87%
    02:00 +26°C° 0 mm 1 m/s 745 mmHg 88%
    03:00 +26°C° 0 mm 2 m/s 745 mmHg 88%
    04:00 +26°C° 0 mm 2 m/s 745 mmHg 88%
    05:00 +26°C° 0 mm 2 m/s 745 mmHg 88%
    06:00 +26°C° 0 mm 2 m/s 745 mmHg 87%
    07:00 +28°C° 0 mm 2 m/s 746 mmHg 80%
    08:00 +30°C° 0 mm 3 m/s 746 mmHg 72%
    09:00 +33°C° 0 mm 4 m/s 747 mmHg 64%
    10:00 +34°C° 0,5 mm 4 m/s 747 mmHg 61%
    11:00 +35°C° 0,5 mm 4 m/s 746 mmHg 58%
    12:00 +36°C° 0,5 mm 4 m/s 746 mmHg 55%
    13:00 +35°C° 1,2 mm 4 m/s 745 mmHg 57%
    14:00 +35°C° 1,2 mm 4 m/s 745 mmHg 59%
    15:00 +35°C° 1,2 mm 4 m/s 744 mmHg 60%
    16:00 +33°C° 0,6 mm 4 m/s 745 mmHg 66%
    17:00 +30°C° 0,6 mm 3 m/s 745 mmHg 72%
    18:00 +29°C° 0,6 mm 2 m/s 745 mmHg 78%
    19:00 +28°C° 0,2 mm 2 m/s 746 mmHg 81%
    20:00 +28°C° 0,2 mm 2 m/s 746 mmHg 84%
    21:00 +27°C° 0,2 mm 2 m/s 747 mmHg 86%
    22:00 +27°C° 0,2 mm 1 m/s 747 mmHg 87%
    23:00 +26°C° 0,2 mm 1 m/s 747 mmHg 87%

    23 Août, Jeudi

    Heure Température Précipitation Vent Pression Humidité
    00:00 +26°C° 0,2 mm 1 m/s 747 mmHg 88%
    01:00 +26°C° 0,2 mm 1 m/s 746 mmHg 88%
    02:00 +25°C° 0,2 mm 1 m/s 746 mmHg 88%
    03:00 +25°C° 0,2 mm 1 m/s 746 mmHg 89%
    04:00 +25°C° 0 mm 1 m/s 746 mmHg 89%
    05:00 +25°C° 0 mm 1 m/s 746 mmHg 88%
    06:00 +25°C° 0 mm 1 m/s 747 mmHg 88%
    07:00 +27°C° 0 mm 1 m/s 747 mmHg 83%
    08:00 +28°C° 0 mm 1 m/s 747 mmHg 78%
    09:00 +29°C° 0 mm 1 m/s 748 mmHg 72%
    10:00 +30°C° 0 mm 1 m/s 747 mmHg 67%
    11:00 +32°C° 0 mm 2 m/s 747 mmHg 63%
    12:00 +34°C° 0 mm 2 m/s 747 mmHg 58%
    13:00 +32°C° 0,7 mm 2 m/s 746 mmHg 62%
    14:00 +31°C° 0,7 mm 2 m/s 745 mmHg 67%
    15:00 +30°C° 0,7 mm 2 m/s 745 mmHg 71%
    16:00 +29°C° 0,7 mm 2 m/s 745 mmHg 77%
    17:00 +28°C° 0,7 mm 1 m/s 745 mmHg 83%
    18:00 +27°C° 0,7 mm 1 m/s 746 mmHg 89%
    19:00 +27°C° 0,6 mm 1 m/s 746 mmHg 90%
    20:00 +26°C° 0,6 mm 1 m/s 747 mmHg 91%
    21:00 +26°C° 0,6 mm 1 m/s 747 mmHg 92%
    22:00 +26°C° 0,3 mm 1 m/s 747 mmHg 92%
    23:00 +26°C° 0,3 mm 1 m/s 746 mmHg 93%

    24 Août, Vendredi

    Heure Température Précipitation Vent Pression Humidité
    00:00 +26°C° 0,3 mm 1 m/s 746 mmHg 93%
    01:00 +25°C° 0,3 mm 1 m/s 746 mmHg 93%
    02:00 +25°C° 0,3 mm 1 m/s 745 mmHg 93%
    03:00 +25°C° 0,3 mm 1 m/s 745 mmHg 92%
    04:00 +25°C° 0,2 mm 1 m/s 745 mmHg 92%
    05:00 +25°C° 0,2 mm 1 m/s 746 mmHg 92%
    06:00 +25°C° 0,2 mm 1 m/s 746 mmHg 92%
    07:00 +27°C° 0,1 mm 1 m/s 746 mmHg 84%
    08:00 +28°C° 0,1 mm 1 m/s 747 mmHg 77%
    09:00 +30°C° 0,1 mm 1 m/s 747 mmHg 69%
    10:00 +31°C° 0,5 mm 1 m/s 747 mmHg 67%
    11:00 +32°C° 0,5 mm 2 m/s 746 mmHg 65%
    12:00 +34°C° 0,5 mm 2 m/s 746 mmHg 63%
    13:00 +32°C° 1,2 mm 2 m/s 745 mmHg 68%
    14:00 +31°C° 1,2 mm 3 m/s 745 mmHg 73%
    15:00 +30°C° 1,2 mm 3 m/s 744 mmHg 77%
    16:00 +29°C° 1,1 mm 2 m/s 745 mmHg 82%
    17:00 +28°C° 1,1 mm 2 m/s 745 mmHg 86%
    18:00 +27°C° 1,1 mm 2 m/s 745 mmHg 90%
    19:00 +27°C° 1,4 mm 1 m/s 746 mmHg 91%
    20:00 +27°C° 1,4 mm 1 m/s 746 mmHg 91%
    21:00 +26°C° 1,4 mm 1 m/s 747 mmHg 92%
    22:00 +24°C° 1,5 mm 0 m/s 746 mmHg 93%
    23:00 +24°C° 1,5 mm 0 m/s 746 mmHg 94%
    Voir plus